Regional Weather Roundup
Issued by NWS

Home | Current Version | Previous Version | Text Only | Print | Product List | Glossary On
Versions: 1 2 3 4 5 6 7 8 9 10 11 12 13 14 15 16 17 18 19 20 21 22 23 24 25 26 27 28 29 30 31 32 33 34 35 36 37 38 39 40 41 42 43 44 45 46 47 48 49 50
000
ASHW40 PHFO 260843
RWRHI

WEATHER ROUNDUP FOR HAWAII
NATIONAL WEATHER SERVICE HONOLULU HI
1000 PM HST SUN JAN 25 2015

THIS IS AN AUTOMATED REPORT THAT HAS NOT BEEN QUALITY CONTROLLED.

NOTE..."FAIR" INDICATES FEW OR NO CLOUDS BELOW 12,000 FEET WITH NO
SIGNIFICANT WEATHER AND/OR OBSTRUCTIONS TO VISIBILITY.

* - THESE SITES REPORT LIMITED FIELDS

HIZ001>004-260900-
KAUAI-NIIHAU-

CITY           SKY/WX    TMP DP  RH WIND       PRES   REMARKS
LIHUE APT      CLOUDY    72  58  61 NE14      30.06F
PORT ALLEN*      N/A     70 N/A N/A NE15G22     N/A
POIPU*           N/A     68 N/A N/A N6G14       N/A
PRINCEVILLE*     N/A     66 N/A N/A MISG        N/A
KOKOLE POINT*  NOT AVBL
MOLOAA DAIRY*  NOT AVBL
WAIMEA HTS*      N/A     66  48  52 VRB6        N/A
PUU OPAE*        N/A     57  50  77 CALM        N/A
PUU LUA*       NOT AVBL
MAKAHA RIDGE*  NOT AVBL
$$

HIZ005>011-260900-
OAHU-

CITY           SKY/WX    TMP DP  RH WIND       PRES   REMARKS
HONOLULU       PTCLDY    70  61  73 N13       30.02S
KALAELOA       CLEAR     68  60  75 VRB6      30.03S
KANEOHE MCB    CLOUDY    68  64  87 W9        30.05S
WHEELER FIELD  FAIR      64  60  86 NW7       30.04S
BELLOWS*         N/A    N/A N/A N/A NE17        N/A
KAHUKU*          N/A    N/A N/A N/A SE2         N/A
WHEELER*       NOT AVBL
WAIANAE HARBOR NOT AVBL
DILLINGHAM*      N/A     64  61  88 MISG        N/A
KAHUKU TRN*      N/A    N/A N/A N/A E5G14       N/A
KAWAILOA*        N/A     63  59  88 E7G18       N/A
KII*             N/A     68  63  83 E3G14       N/A
MAKUA RANGE*     N/A     70  59  68 E12G20      N/A
OAHU FOREST NW   N/A     59  12  15 CALM        N/A
SCHOFIELD BRK*   N/A     63  59  88 MISG        N/A
SCHOFIELD S*   NOT AVBL
WAIANAE VLY*     N/A     68  59  73 NE12G26     N/A
KUAOKALA*        N/A     66  59  77 CALM        N/A
HONOULIUULI*   NOT AVBL
MOKUOLOE IS*     N/A    N/A N/A N/A MISG        N/A
PALEHUA*         N/A     72  61  68 CALM        N/A
WAIAWA PHB*    NOT AVBL
$$

HIZ012>013-260900-
MOLOKAI-

CITY           SKY/WX    TMP DP  RH WIND       PRES   REMARKS
MOLOKAI AIRPT  CLEAR     66  63  90 NE12G26   30.03S
KALAUPAPA      NOT AVBL
MAKAPULAPAI*     N/A     66  64  94 SE9G18      N/A
MOLOKAI 1*       N/A     61  59  94 NE7G18      N/A
PUU ALII*        N/A     54  54 100 E2G10       N/A
$$

HIZ016-260900-
KAHOOLAWE-

CITY           SKY/WX    TMP DP  RH WIND       PRES   REMARKS
KAHOOLAWE*       N/A     63 N/A N/A NE14G24     N/A
HAKIOAWA*        N/A     64  64 100 MISG      30.42S
HONOKANAIA*      N/A     69  63  82 VRB16G32  30.02R
KANELOA*         N/A     70  66  88 MISG      29.22R
KEALIALALO*    NOT AVBL
LUA MAKIKA*    NOT AVBL
$$

HIZ014>015-260900-
LANAI-

CITY           SKY/WX    TMP DP  RH WIND       PRES   REMARKS
LANAI CITY     FAIR      65  65 100 NE26G33   30.04S
LANAI 1*         N/A     64  64 100 NE21G32     N/A
$$

HIZ017>028-260900-
MAUI-

CITY           SKY/WX    TMP DP  RH WIND       PRES   REMARKS
KAHULUI        CLOUDY    68  65  90 NE12      30.04S
KAPALUA-W MAUI NOT AVBL
HANA AIRPORT   LGT RAIN  66  64  94 CALM      30.07F VSB 1/2
HANA*            N/A     66 N/A N/A SW3         N/A
HALEAKALA SUMM   N/A     48   9  20 NE23        N/A
MAALAEA BAY*   NOT AVBL
HALEAKALA*     NOT AVBL
KAUPO GAP*       N/A     54  50  87 N12         N/A
KULA 1*          N/A     48  34  57 E3          N/A
$$

HIZ023>026-260900-
BIG ISLAND OF HAWAII COAST AND LOWER SLOPES-

CITY           SKY/WX    TMP DP  RH WIND       PRES   REMARKS
KAILUA KONA    CLEAR     75  64  68 N15       29.95S
HILO           LGT RAIN  72  67  84 N12       30.01S
HONOKAA*       NOT AVBL
KAWAIHAE MWT*    N/A     77 N/A N/A SE2         N/A
KAWAIHAE*        N/A     79 N/A N/A S3          N/A
SOUTH POINT*     N/A     68 N/A N/A NE13G21     N/A
UPOLU AIRPORT*   N/A    N/A N/A N/A NE23G29     N/A
KAMUELA*       NOT AVBL
HAKALAU*         N/A     52  52 100 VRB3        N/A
KALOKO-HONOKO*   N/A     75  66  73 W3        29.94S
PALI 2*          N/A     63  59  88 N16G24      N/A
KEALAKOMO*       N/A     72  68  88 NE10G16     N/A
KAUPULEHU*       N/A     66  57  72 SE5         N/A
KAPAPALA*        N/A     63  62  95 CALM        N/A
LOWER KAHUKU*    N/A     61  61 100 N1          N/A
PUHE CS*       NOT AVBL
PUHO CS*         N/A     75  63  66 E1          N/A
PTA KEAMUKU*     N/A     59  57  94 CALM        N/A
WAIKOLOA*        N/A    N/A N/A N/A NE10G18     N/A
$$

HIZ027>028-260900-
BIG ISLAND OF HAWAII INTERIOR AND SUMMMITS-

CITY           SKY/WX    TMP DP  RH WIND       PRES   REMARKS
BRADSHAW FIELD CLOUDY    50  48  93 SE3       30.28S
MK VISITOR CEN   N/A      0   0 100 MISG        N/A
MAUNA KEA*       N/A     41   1  19 E5          N/A
MAUNA LOA*       N/A     46   5  18 MISG        N/A
MAUNA LOA 1*   NOT AVBL
PTA KIPUKA*      N/A     55  55 100 S3          N/A
PTA RANGE 17*    N/A     55  50  82 NE7G21      N/A
PTA WEST*        N/A     54  52  94 SE7         N/A
NENE CABIN*      N/A    N/A N/A N/A N1          N/A
AHUMOA*          N/A     48  48 100 SE3         N/A
PTA PORTABLE*  NOT AVBL
PUU MALI*      NOT AVBL
$$

HIC003-260900-
NORTHWEST ISLANDS-

CITY           SKY/WX    TMP DP  RH WIND       PRES   REMARKS
MIDWAY ISLAND  MOCLDY    66  63  88 SW9       30.07S
MIDWAY NOS*    NOT AVBL
FRENCH FRIGATE NOT AVBL
$$

PHZ110>124-180-260900-
BUOY REPORTS

STATION/POSITION TIME  TEMP    WIND        PRES    WAVE   SWELL
                       AIR SEA DIR/SP/G            HT/PER HT/DIR
                 (UTC) (F)     (DEG/KT/KT) (MB)    (FT/S) (FT/D)
BUOY 51001       NOT AVBL
BUOY 51101       0800   69 73   50/ 14/ 16 1018.8F   9/12   8/300
BUOY 51100       0800   70 75   70/ 16/ 19 1018.0
BUOY 51003       0800   74 78   50/ 16/ 19 1014.9F  10/13   8
BUOY 51004       0744   76 78   40/ 12/ 14 1013.7S   8/ 9   8/ 70
BARBERS PT BUOY  NOT AVBL
WAIMEA BAY BUOY  0800      75                N/A     7/14   5/300
KAILUA BAY BUOY  0800      76                N/A     7/ 6   3/340
LANAI BUOY       0800      77                N/A     4/14   3/280
BARBERS PT 2     0800      77                N/A     5/13   3/300
PAUWELA MAUI     0800      76                N/A     9/14   7/320
HILO             0800      77                N/A    11/14   8/340
KANEOHE BAY BUOY 0800      75                N/A     6/ 7   2/350
HANALEI KAUAI    NOT AVBL
KAHULUI HARBOR   0800   69 76   10/ 10/ 17 1016.9F
HONOLULU HARBOR  0800   72 76   90/  1/  6 1016.3S
KILO NALU        NOT AVBL
HILO HARBOR      0800   70      70/  9/ 19 1015.7R
MOKUOLOE         0800      74              1017.4F
NAWILIWILI       0800      75                N/A
WHOTS BUOY       NOT AVBL
BUOY 51028       NOT AVBL
$$

......................KEY........................................
  SKY/WX - SKY CONDITIONS/PRESENT WEATHER
  TMP    - TEMPERATURE IN FAHRENHEIT
  DWPT   - DEWPOINT IN FAHRENHEIT
  RH     - RELATIVE HUMIDITY IN PERCENT
  WIND   - DIRECTION AND SPEED /MPH FOR ISLANDS...KTS FOR BUOYS/
  PRES   - MEAN SEA LEVEL PRESSURE IN INCHES OF HG
  VSB    - VISIBILITY IN MILES
  HX     - HEAT INDEX
  WCI    - WIND CHILL INDEX
  VRB    - VARIABLE WIND DIRECTION
  N/A    - NOT AVAILABLE



USA.gov is the U.S. government's official web portal to all federal, state and local government web resources and services.